Myrtle Beach, SC

10:49 AM EST on February 11, 2016 (GMT -0500)
Myrtle Beach International

Weather History for KMYR - January, 2013

Change the Weather History Date:

Sunday, January 27, 2013

  Actual Average Record
Temperature  
Mean Temperature 37 °F -  
Max Temperature 46 °F 53 °F 80 °F (1952)
Min Temperature 28 °F 34 °F 22 °F (2003)
Degree Days  
Heating Degree Days 28    
Moisture  
Dew Point 29 °F    
Average Humidity 80    
Maximum Humidity 100    
Minimum Humidity 57    
Precipitation  
Precipitation 0.00 in - - ()
Sea Level Pressure  
Sea Level Pressure 30.46 in    
Wind  
Wind Speed 9 mph (NE)    
Max Wind Speed 16 mph    
Max Gust Speed -    
Visibility 10 miles    
Events      
Averages and records for this station are not official NWS values.
T = Trace of Precipitation, MM = Missing Value Source: NWS Daily Summary

Daily Weather History Graph

Daily Weather History Graph

Search for Another Location

Airport or City:

Trip Planner

Search our weather history database for the weather conditions in past years. The results will help you decide how hot, cold, wet, or windy it might be!

Date:

Astronomy

Jan. 27, 2013 Rise Set
Actual Time 7:15 AM EST 5:42 PM EST
Civil Twilight 6:48 AM EST 6:08 PM EST
Nautical Twilight 6:18 AM EST 6:38 PM EST
Astronomical Twilight 5:49 AM EST 7:08 PM EST
Moon 6:29 PM EST (1/27) 7:11 AM EST (1/27)
Length of Visible Light 11h 19m
Length of Day
10h 27m
Full, 100% of the Moon is Illuminated
Jan 27
Full
Feb 3
Last Quarter
Feb 10
New
Feb 17
First Quarter
Feb 25
Full

Hourly Weather History & Observations

Time (EST) Temp. Windchill Dew Point Humidity Pressure Visibility Wind Dir Wind Speed Gust Speed Precip Events Conditions
12:15 AM 35.6 °F 28.6 °F 28.4 °F 75% 30.36 in 10.0 mi NE 9.2 mph - N/A   Clear
12:35 AM 33.8 °F 25.8 °F 28.4 °F 81% 30.37 in 10.0 mi NE 10.4 mph - N/A   Clear
12:55 AM 33.8 °F 25.8 °F 28.4 °F 81% 30.38 in 10.0 mi NE 10.4 mph - N/A   Clear
1:15 AM 33.8 °F 27.7 °F 26.6 °F 75% 30.38 in 10.0 mi NNE 6.9 mph - N/A   Clear
1:35 AM 33.8 °F 27.7 °F 26.6 °F 75% 30.39 in 10.0 mi North 6.9 mph - N/A   Clear
1:55 AM 30.2 °F 21.3 °F 26.6 °F 86% 30.40 in 10.0 mi NNE 10.4 mph - N/A   Clear
2:15 AM 32.0 °F 24.2 °F 26.6 °F 80% 30.40 in 10.0 mi NNE 9.2 mph - N/A   Clear
2:35 AM 32.0 °F 24.8 °F 26.6 °F 80% 30.40 in 10.0 mi NNE 8.1 mph - N/A   Clear
2:55 AM 30.2 °F 22.6 °F 26.6 °F 86% 30.41 in 10.0 mi NNE 8.1 mph - N/A   Clear
3:15 AM 30.2 °F 23.4 °F 26.6 °F 86% 30.42 in 10.0 mi NNE 6.9 mph - N/A   Clear
3:35 AM 30.2 °F 22.6 °F 26.6 °F 86% 30.42 in 10.0 mi NNE 8.1 mph - N/A   Clear
3:55 AM 30.2 °F 21.9 °F 26.6 °F 86% 30.41 in 10.0 mi North 9.2 mph - N/A   Clear
4:15 AM 28.4 °F 21.2 °F 24.8 °F 86% 30.42 in 10.0 mi North 6.9 mph - N/A   Clear
4:35 AM 28.4 °F 21.2 °F 24.8 °F 86% 30.42 in 10.0 mi North 6.9 mph - N/A   Clear
4:55 AM 28.4 °F 20.4 °F 26.6 °F 93% 30.43 in 10.0 mi North 8.1 mph - N/A   Clear
5:15 AM 28.4 °F 20.4 °F 26.6 °F 93% 30.43 in 9.0 mi NNE 8.1 mph - N/A   Clear
5:35 AM 28.4 °F 19.7 °F 26.6 °F 93% 30.43 in 8.0 mi NNE 9.2 mph - N/A   Clear
5:50 AM 28.4 °F 20.4 °F 28.4 °F 100% 30.44 in 10.0 mi NNE 8.1 mph - N/A   Clear
6:45 AM 28.4 °F 20.4 °F 26.6 °F 93% 30.46 in 10.0 mi NNE 8.1 mph - N/A   Clear
7:10 AM 28.4 °F 18.5 °F 26.6 °F 93% 30.47 in 7.0 mi NNE 11.5 mph - N/A   Scattered Clouds
7:50 AM 28.4 °F 18.5 °F 28.4 °F 100% 30.48 in 7.0 mi NNE 11.5 mph - N/A   Scattered Clouds
8:50 AM 33.8 °F 25.3 °F 30.2 °F 87% 30.50 in 8.0 mi NNE 11.5 mph - N/A   Clear
9:45 AM 39.2 °F 31.2 °F 32.0 °F 75% 30.52 in 8.0 mi NE 13.8 mph - N/A   Clear
10:45 AM 42.8 °F 36.6 °F 33.8 °F 70% 30.55 in 10.0 mi NE 11.5 mph - N/A   Clear
11:45 AM 44.6 °F 38.1 °F 33.8 °F 66% 30.54 in 10.0 mi NE 13.8 mph - N/A   Clear
1:45 PM 46.4 °F 39.8 °F 33.8 °F 62% 30.50 in 10.0 mi East 16.1 mph - N/A   Clear
2:45 PM 46.4 °F 41.1 °F 33.8 °F 62% 30.51 in 10.0 mi ESE 11.5 mph - N/A   Clear
3:45 PM 46.4 °F 41.5 °F 32.0 °F 57% 30.50 in 10.0 mi ESE 10.4 mph - N/A   Clear
4:45 PM 46.4 °F 40.7 °F 32.0 °F 57% 30.51 in 10.0 mi East 12.7 mph - N/A   Clear
5:45 PM 42.8 °F 38.6 °F 32.0 °F 66% 30.51 in 10.0 mi East 6.9 mph - N/A   Clear
6:47 PM 42.8 °F 37.5 °F 33.8 °F 70% 30.53 in 10.0 mi East 9.2 mph - N/A   Clear
7:45 PM 42.8 °F 37.5 °F 32.0 °F 66% 30.53 in 10.0 mi East 9.2 mph - N/A   Clear
8:45 PM 37.4 °F 32.1 °F 32.0 °F 81% 30.52 in 10.0 mi NNE 6.9 mph - N/A   Clear
9:45 PM 37.4 °F 32.8 °F 32.0 °F 81% 30.51 in 10.0 mi NNE 5.8 mph - N/A   Clear
10:55 PM 35.6 °F 29.9 °F 30.2 °F 81% 30.51 in 10.0 mi NNE 6.9 mph - N/A   Partly Cloudy
11:15 PM 35.6 °F 30.7 °F 30.2 °F 81% 30.50 in 10.0 mi NNE 5.8 mph - N/A   Clear
11:35 PM 37.4 °F 32.8 °F 32.0 °F 81% 30.49 in 10.0 mi North 5.8 mph - N/A   Clear
11:55 PM 35.6 °F 29.2 °F 32.0 °F 87% 30.50 in 10.0 mi North 8.1 mph - N/A   Clear